Burlington, IA

1:07 AM CDT on October 23, 2019 (GMT -0500)
Burlington Regional

Weather History for KBRL - September, 2019

Change the Weather History Date:

Friday, September 20, 2019

  Actual Average Record
Temperature  
Mean Temperature 79 °F 66 °F  
Max Temperature 88 °F 77 °F 94 °F (2018)
Min Temperature 70 °F 54 °F 32 °F (1991)
Degree Days  
Heating Degree Days 0 3  
Month to date heating degree days 0 25  
Since 1 July heating degree days 0 29  
Cooling Degree Days 14 3  
Month to date cooling degree days 181 115  
Year to date cooling degree days 1171 1158  
Growing Degree Days 29 (Base 50)    
Moisture  
Dew Point 68 °F    
Average Humidity 72    
Maximum Humidity 90    
Minimum Humidity 53    
Precipitation  
Precipitation 0.00 in 0.13 in 2.29 in (1948)
Month to date precipitation 2.67 2.45  
Year to date precipitation 34.40 29.70  
Sea Level Pressure  
Sea Level Pressure 30.04 in    
Wind  
Wind Speed 8 mph (SSE)    
Max Wind Speed 16 mph    
Max Gust Speed 23 mph    
Visibility 10 miles    
Events      
T = Trace of Precipitation, MM = Missing Value Source: NWS Daily Summary

Daily Weather History Graph

Daily Weather History Graph

Search for Another Location

Airport or City:

Astronomy

Sep. 20, 2019 Rise Set
Actual Time 6:49 AM CDT 7:05 PM CDT
Civil Twilight 6:22 AM CDT 7:32 PM CDT
Nautical Twilight 5:50 AM CDT 8:04 PM CDT
Astronomical Twilight 5:17 AM CDT 8:37 PM CDT
Moon 10:53 PM CDT (9/20) 12:57 PM CDT (9/20)
Length of Visible Light 13h 10m
Length of Day
12h 15m
Waning Gibbous, 65% of the Moon is Illuminated
Sep 20
Waning Gibbous
Sep 21
Last Quarter
Sep 28
New
Oct 5
First Quarter
Oct 13
Full

Hourly Weather History & Observations

Time (CDT) Temp. Heat Index Dew Point Humidity Pressure Visibility Wind Dir Wind Speed Gust Speed Precip Events Conditions
12:53 AM 75.0 °F - 69.1 °F 82% 30.03 in 10.0 mi South 6.9 mph - N/A   Mostly Cloudy
1:53 AM 73.9 °F - 69.1 °F 85% 30.03 in 10.0 mi SSW 6.9 mph - N/A   Clear
2:53 AM 73.9 °F - 68.0 °F 82% 30.04 in 10.0 mi South 6.9 mph - N/A   Clear
3:53 AM 72.0 °F - 68.0 °F 87% 30.03 in 9.0 mi SSW 6.9 mph - N/A   Partly Cloudy
4:53 AM 71.1 °F - 68.0 °F 90% 30.04 in 8.0 mi South 3.5 mph - N/A   Clear
5:53 AM 70.0 °F - 66.9 °F 90% 30.04 in 7.0 mi Calm Calm - N/A   Clear
7:53 AM 72.0 °F - 66.0 °F 81% 30.10 in 10.0 mi East 11.5 mph - N/A   Clear
8:53 AM 73.9 °F - 64.9 °F 73% 30.11 in 10.0 mi ESE 10.4 mph - N/A   Clear
9:53 AM 78.1 °F - 64.9 °F 64% 30.10 in 10.0 mi SE 10.4 mph - N/A   Clear
10:53 AM 82.0 °F 84.1 °F 66.0 °F 58% 30.10 in 10.0 mi South 10.4 mph - N/A   Clear
11:53 AM 84.0 °F 86.3 °F 66.0 °F 55% 30.08 in 10.0 mi SSE 9.2 mph - N/A   Clear
12:53 PM 86.0 °F 89.4 °F 68.0 °F 55% 30.06 in 10.0 mi South 8.1 mph - N/A   Clear
1:53 PM 87.1 °F 90.6 °F 68.0 °F 53% 30.05 in 10.0 mi South 8.1 mph - N/A   Clear
2:53 PM 88.0 °F 92.1 °F 69.1 °F 53% 30.03 in 10.0 mi South 8.1 mph - N/A   Clear
3:53 PM 88.0 °F 92.1 °F 69.1 °F 53% 30.01 in 10.0 mi South 9.2 mph - N/A   Clear
4:53 PM 87.1 °F 90.6 °F 68.0 °F 53% 30.01 in 10.0 mi South 10.4 mph - N/A   Clear
5:53 PM 86.0 °F 89.4 °F 68.0 °F 55% 30.00 in 10.0 mi SSE 6.9 mph - N/A   Clear
6:53 PM 82.9 °F 85.8 °F 68.0 °F 60% 30.00 in 10.0 mi SE 5.8 mph - N/A   Clear
7:53 PM 78.1 °F - 68.0 °F 71% 30.02 in 10.0 mi SSE 3.5 mph - N/A   Clear
8:53 PM 80.1 °F 82.7 °F 68.0 °F 67% 30.04 in 10.0 mi SE 8.1 mph - N/A   Overcast
9:53 PM 78.1 °F - 68.0 °F 71% 30.04 in 10.0 mi SSE 9.2 mph - N/A   Clear
10:53 PM 78.1 °F - 69.1 °F 74% 30.02 in 10.0 mi SSE 9.2 mph - N/A   Clear
11:53 PM 75.9 °F - 69.1 °F 79% 30.02 in 10.0 mi South 13.8 mph 20.7 mph N/A   Clear